GSAT-7A (43864 NORAD) Tracking and Keplerian Element Data

This shows tracking and keplerian element data for the satellite.

Feedback or suggestion? Click here.




ElementValue
Catalog43864
NameGSAT-7A
Epoch Orbit209
Epoch Day193.8756217
Epoch Year2019
RAAN107.7043
Inclination0.0766
Eccentricity0.0002439
Argument of Perigee345.0872
Mean Anonmoly215.6237
Mean Motion1.00273248
Decay Rate1.5E-07
L11 43864U 18105A 19193.87562170 .00000015 00000-0 00000-0 0 9995
L22 43864 0.0766 107.7043 0002439 345.0872 215.6237 1.00273248 2099

Live tracking and technical data element details for GSAT-7A (NORAD 43864). GSAT-7A can be tracked NOW for your location showing map with azimuth and elevation plus other details from your city location.

Track the satellite on the map from your city or location and see movement details for azimuth, elevation, latitude, longitude, range, height, and movement on the map or in text.







IsCatalogInMostPopularTable: catalog: 43864, numindb: 110
Update: records affected: 1



GetName: 43864 GSAT-7A

Hit Count: updated at: Tue, 16 Jul 2019 14:00:18 GMT